Liberia, Costa Rica

5:52 PM CST on August 28, 2016 (GMT -0600)
Daniel Oduber Quiros International

Weather History for MRLB - April, 2015

Change the Weather History Date:

Sunday, April 12, 2015

  Actual Average Record
Temperature  
Mean Temperature 85 °F -  
Max Temperature 96 °F 92 °F 98 °F (2004)
Min Temperature 74 °F 76 °F 68 °F (2012)
Cooling Degree Days 20    
Growing Degree Days 35 (Base 50)    
Moisture  
Dew Point 64 °F    
Average Humidity 42    
Maximum Humidity 73    
Minimum Humidity 25    
Precipitation  
Precipitation 0.00 in - - ()
Sea Level Pressure  
Sea Level Pressure 29.81 in    
Wind  
Wind Speed 9 mph ()    
Max Wind Speed 22 mph    
Max Gust Speed 32 mph    
Visibility 8.1 miles    
Events      
Averages and records for this station are not official NWS values.
T = Trace of Precipitation, MM = Missing Value Source: Averaged Metar Reports

Daily Weather History Graph

Daily Weather History Graph

Search for Another Location

Airport or City:

Trip Planner

Search our weather history database for the weather conditions in past years. The results will help you decide how hot, cold, wet, or windy it might be!

Date:

Astronomy

Apr. 12, 2015 Rise Set
Actual Time 5:33 AM CST 5:53 PM CST
Civil Twilight 5:11 AM CST 6:14 PM CST
Nautical Twilight 4:46 AM CST 6:39 PM CST
Astronomical Twilight 4:21 AM CST 7:04 PM CST
Moon 12:12 AM CST (4/12) 12:13 PM CST (4/12)
Length of Visible Light 13h 02m
Length of Day
12h 19m
Last Quarter, 43% of the Moon is Illuminated
Apr 12
Last Quarter
Apr 18
New
Apr 25
First Quarter
May 3
Full
May 11
Last Quarter

Hourly Weather History & Observations

Time (CST) Temp. Heat Index Dew Point Humidity Pressure Visibility Wind Dir Wind Speed Gust Speed Precip Events Conditions
6:00 AM 76 °F - 66 °F 63% 29.86 in 12 mi Calm Calm - -   Clear
6:00 AM 75.2 °F - 66.2 °F 73% 29.83 in - Calm Calm - N/A   Clear
7:00 AM 82.4 °F 84.6 °F 66.2 °F 58% 29.85 in - SW 3.5 mph - N/A   Clear
8:00 AM 86.0 °F 87.3 °F 64.4 °F 48% 29.86 in - West 2.3 mph - N/A   Clear
9:00 AM 89 °F - 64 °F 33% 29.88 in 12 mi NE 5.8 mph - -   Scattered Clouds
9:00 AM 89.6 °F 91.1 °F 64.4 °F 43% 29.86 in 6.2 mi NE 5.8 mph - N/A   Scattered Clouds
10:00 AM 93.2 °F 94.1 °F 62.6 °F 36% 29.85 in - East 15.0 mph - N/A   Clear
11:00 AM 93.2 °F 94.1 °F 62.6 °F 36% 29.82 in - East 19.6 mph 32.2 mph N/A   Clear
12:00 PM 94 °F - 62 °F 25% 29.83 in 12 mi East 18.4 mph - -   Scattered Clouds
12:00 PM 95.0 °F 96.0 °F 62.6 °F 34% 29.81 in 6.2 mi East 18.4 mph - N/A   Partly Cloudy
1:00 PM 95.0 °F 97.0 °F 64.4 °F 36% 29.79 in 6.2 mi East 18.4 mph - N/A   Partly Cloudy
2:00 PM 95.0 °F 96.0 °F 62.6 °F 34% 29.77 in 6.2 mi East 19.6 mph - N/A   Partly Cloudy
3:00 PM 94 °F - 63 °F 26% 29.78 in 12 mi East 21.9 mph - -   Scattered Clouds
3:00 PM 93.2 °F 94.1 °F 62.6 °F 36% 29.75 in 6.2 mi East 21.9 mph - N/A   Partly Cloudy
4:00 PM 91.4 °F 91.4 °F 60.8 °F 36% 29.75 in 6.2 mi ENE 16.1 mph - N/A   Scattered Clouds
5:00 PM 89.6 °F 91.1 °F 64.4 °F 43% 29.76 in 6.2 mi East 17.3 mph - N/A   Scattered Clouds
6:00 PM 87 °F - 65 °F 39% 29.81 in 12 mi East 16.1 mph - -   Partly Cloudy
6:00 PM 86.0 °F 88.2 °F 66.2 °F 51% 29.78 in 6.2 mi East 16.1 mph - N/A   Scattered Clouds
7:00 PM 86.0 °F 86.6 °F 62.6 °F 45% 29.80 in 6.2 mi East 16.1 mph - N/A   Partly Cloudy
8:00 PM 84.2 °F 85.6 °F 64.4 °F 51% 29.83 in 6.2 mi East 16.1 mph - N/A   Partly Cloudy